Miscellaneous Local Product
Issued by NWS Hastings, NE

Home | Current Version | Previous Version | Graphics & Text | Print | Product List | Glossary On
Versions: 1 2 3 4 5 6 7 8 9 10 11 12 13 14 15 16 17 18 19 20 21 22 23 24 25 26 27 28 29 30 31 32 33 34 35 36 37 38 39 40 41 42 43 44 45 46 47 48 49 50
000
AXUS43 KGID 250902
MISGRI

GID CWA HOURLY WEATHER ROUNDUP
NATIONAL WEATHER SERVICE HASTINGS NE
400 AM CDT FRI JUL 25 2014

NOTE: "FAIR" INDICATES FEW OR NO CLOUDS BELOW 12,000 FEET WITH NO
SIGNIFICANT WEATHER AND/OR OBSTRUCTIONS TO VISIBILITY.

...SOUTH CENTRAL NEBRASKA...

CITY           SKY/WX    TMP DP  RH WIND       PRES   REMARKS
GRAND ISLAND   PTCLDY    75  69  81 SE13      29.76F
HASTINGS       CLOUDY    77  67  71 S14       29.80F
KEARNEY        MOCLDY    75  70  83 SE18      29.79F
ORD            CLEAR     72  67  84 SE12      29.73F
YORK           PTCLDY    72  68  88 S13       29.79F
AURORA         PTCLDY    73  70  91 SE12      29.78F
LEXINGTON      PTCLDY    77  71  82 SE10      29.79F
HOLDREGE       PTCLDY    75  69  81 S9        29.81F
HEBRON         CLOUDY    76  67  74 S3        29.83F

...NEBRASKA PANHANDLE...

CITY           SKY/WX    TMP DP  RH WIND       PRES   REMARKS
CHADRON        CLEAR     70  55  59 CALM      29.86R
ALLIANCE       CLEAR     73  52  47 W12       29.86F
SCOTTSBLUFF    CLEAR     69  55  60 NW8       29.90R
SIDNEY         CLEAR     69  52  54 NW7       29.95S

...WESTERN AND NORTH CENTRAL NEBRASKA...

CITY           SKY/WX    TMP DP  RH WIND       PRES   REMARKS
VALENTINE      CLEAR     75  60  59 SW12      29.73S
AINSWORTH      CLEAR     72  70  93 S12       29.73F
ONEILL         CLEAR     75  66  74 S13G18    29.72F
BROKEN BOW     PTCLDY    79  70  74 S14G28    29.77S
IMPERIAL       PTCLDY    71  57  61 NW13      29.84F
NORTH PLATTE   CLEAR     72  60  66 SW3       29.81F
MCCOOK         PTCLDY    73  56  54 SW8       29.81S

...EASTERN NEBRASKA...

CITY           SKY/WX    TMP DP  RH WIND       PRES   REMARKS
NORFOLK        PTCLDY    75  67  76 S23       29.71F
SO SIOUX CITY  PTCLDY    77  64  64 S3        29.71R
TEKAMAH        CLOUDY    79  67  66 SW15      29.71F
COLUMBUS       MOCLDY    73  64  73 S15       29.75F
ALBION         CLEAR     72  66  82 S12G18    29.74F
OMAHA EPPLEY   CLOUDY    79  63  57 S15G29    29.73F
OFFUTT AFB     LGT RAIN  75  72  90 S13G31    29.74F
MILLARD        CLOUDY    76  69  78 SW7G17    29.75F
LINCOLN        CLOUDY    74  68  81 S10       29.80F
NEBRASKA CITY  CLOUDY    69  62  79 SE6       29.86F
BEATRICE       CLOUDY    73  67  82 SE6       29.84F
FALLS CITY     CLOUDY    71  61  70 N9        29.88R

...NORTHERN KANSAS...

CITY           SKY/WX    TMP DP  RH WIND       PRES   REMARKS
GOODLAND       CLOUDY    78  54  43 S13       29.90F
HILL CITY      MOCLDY    83  63  50 SW12      29.84F
NORTON         SUNNY     81  52  36 S21G28    29.82S
PHILLIPSBURG   CLEAR     84  64  51 S13       29.82F
SMITH CENTER   CLEAR     79  68  69 S12       29.85S
HAYS           PTCLDY    70  64  83 S13       29.88S
RUSSELL        CLEAR     79  67  66 S18G28    29.85F
CONCORDIA      CLOUDY    79  71  76 S21G31    29.83F
SALINA         PTCLDY    80  70  71 S17G25    29.87S
TOPEKA         CLOUDY    76  67  73 S5        29.87F



USA.gov is the U.S. government's official web portal to all federal, state and local government web resources and services.